Time,TemperatureF,DewpointF,PressureIn,WindDirection,WindDirectionDegrees,WindSpeedMPH,WindSpeedGustMPH,Humidity,HourlyPrecipIn,Conditions,Clouds,dailyrainin,SoftwareType,DateUTC
2013-02-03 00:01:00,21.6,14.6,30.02,NNW,336,0.0,0.0,74,0.00,,,0.00,WeatherDisplay:10.37,2013-02-03 05:01:00,
2013-02-03 00:02:00,21.6,14.6,30.02,NNW,336,0.0,0.0,74,0.00,,,0.00,WeatherDisplay:10.37,2013-02-03 05:02:00,
2013-02-03 00:03:00,21.6,14.6,30.02,NNW,336,0.0,0.0,74,0.00,,,0.00,WeatherDisplay:10.37,2013-02-03 05:03:00,
2013-02-03 00:06:00,21.6,14.9,30.02,NNW,336,0.0,0.0,75,0.00,,,0.00,WeatherDisplay:10.37,2013-02-03 05:06:00,
2013-02-03 00:11:00,21.6,15.2,30.02,ENE,78,0.0,0.0,76,0.00,,,0.00,WeatherDisplay:10.37,2013-02-03 05:11:00,
2013-02-03 00:16:00,21.6,14.9,30.02,ENE,78,0.0,0.0,75,0.00,,,0.00,WeatherDisplay:10.37,2013-02-03 05:16:00,
2013-02-03 00:21:00,21.5,15.1,30.02,ENE,78,0.0,0.0,76,0.00,,,0.00,WeatherDisplay:10.37,2013-02-03 05:21:00,
2013-02-03 00:26:00,21.5,15.1,30.02,ENE,78,0.0,0.0,76,0.00,,,0.00,WeatherDisplay:10.37,2013-02-03 05:26:00,
2013-02-03 00:31:00,21.5,15.4,30.02,ENE,78,0.0,0.0,77,0.00,,,0.00,WeatherDisplay:10.37,2013-02-03 05:31:00,
2013-02-03 00:36:00,21.5,15.4,30.02,ENE,78,0.0,0.0,77,0.00,,,0.00,WeatherDisplay:10.37,2013-02-03 05:36:00,
2013-02-03 00:41:00,21.5,15.1,30.02,ENE,78,0.0,0.0,76,0.00,,,0.00,WeatherDisplay:10.37,2013-02-03 05:41:00,
2013-02-03 00:46:00,21.5,15.1,30.02,NW,311,1.2,2.3,76,0.00,,,0.00,WeatherDisplay:10.37,2013-02-03 05:46:00,
2013-02-03 00:51:00,21.7,15.9,30.02,NW,311,0.0,0.0,78,0.00,,,0.00,WeatherDisplay:10.37,2013-02-03 05:51:00,
2013-02-03 00:56:00,21.7,15.6,30.02,NW,311,0.0,0.0,77,0.00,,,0.00,WeatherDisplay:10.37,2013-02-03 05:56:00,
2013-02-03 01:01:00,21.7,15.3,30.02,NW,311,0.0,0.0,76,0.00,,,0.00,WeatherDisplay:10.37,2013-02-03 06:01:00,
2013-02-03 01:06:00,21.7,15.0,30.02,NW,311,0.0,0.0,75,0.00,,,0.00,WeatherDisplay:10.37,2013-02-03 06:06:00,
2013-02-03 01:11:00,21.8,15.1,30.02,NW,311,0.0,0.0,75,0.00,,,0.00,WeatherDisplay:10.37,2013-02-03 06:11:00,
2013-02-03 01:16:00,21.8,15.1,30.02,NW,311,0.0,0.0,75,0.00,,,0.00,WeatherDisplay:10.37,2013-02-03 06:16:00,
2013-02-03 01:21:00,21.8,15.1,30.02,NW,311,0.0,0.0,75,0.00,,,0.00,WeatherDisplay:10.37,2013-02-03 06:21:00,
2013-02-03 01:26:00,21.7,15.0,30.01,NW,311,0.0,0.0,75,0.00,,,0.00,WeatherDisplay:10.37,2013-02-03 06:26:00,
2013-02-03 01:31:00,21.7,15.0,30.01,West,272,1.3,3.5,75,0.00,,,0.00,WeatherDisplay:10.37,2013-02-03 06:31:00,
2013-02-03 01:36:00,21.7,15.0,30.01,West,272,0.0,0.0,75,0.00,,,0.00,WeatherDisplay:10.37,2013-02-03 06:36:00,
2013-02-03 01:41:00,21.7,15.0,30.01,West,272,0.0,0.0,75,0.00,,,0.00,WeatherDisplay:10.37,2013-02-03 06:41:00,
2013-02-03 01:46:00,21.7,15.0,30.01,West,272,0.0,0.0,75,0.00,,,0.00,WeatherDisplay:10.37,2013-02-03 06:46:00,
2013-02-03 01:51:00,21.7,15.0,30.01,West,272,0.0,0.0,75,0.00,,,0.00,WeatherDisplay:10.37,2013-02-03 06:51:00,
2013-02-03 01:56:00,21.6,14.9,30.01,West,272,0.0,0.0,75,0.00,,,0.00,WeatherDisplay:10.37,2013-02-03 06:56:00,
2013-02-03 02:01:00,21.5,15.1,30.01,West,272,0.0,0.0,76,0.00,,,0.00,WeatherDisplay:10.37,2013-02-03 07:01:00,
2013-02-03 02:06:00,21.5,15.1,30.01,West,272,0.0,0.0,76,0.00,,,0.00,WeatherDisplay:10.37,2013-02-03 07:06:00,
2013-02-03 02:11:00,21.3,14.9,30.01,West,272,0.0,0.0,76,0.00,,,0.00,WeatherDisplay:10.37,2013-02-03 07:11:00,
2013-02-03 02:16:00,21.3,14.9,30.01,West,272,0.0,0.0,76,0.00,,,0.00,WeatherDisplay:10.37,2013-02-03 07:16:00,
2013-02-03 02:21:00,21.2,14.8,30.01,West,272,0.0,0.0,76,0.00,,,0.00,WeatherDisplay:10.37,2013-02-03 07:21:00,
2013-02-03 02:26:00,21.2,15.1,30.00,West,272,0.0,0.0,77,0.00,,,0.00,WeatherDisplay:10.37,2013-02-03 07:26:00,
2013-02-03 02:31:00,21.1,15.0,30.00,West,272,0.1,1.1,77,0.00,,,0.00,WeatherDisplay:10.37,2013-02-03 07:31:00,
2013-02-03 02:36:00,21.1,14.7,30.00,West,272,0.0,0.0,76,0.00,,,0.00,WeatherDisplay:10.37,2013-02-03 07:36:00,
2013-02-03 02:41:00,21.1,15.0,30.00,West,272,0.0,0.0,77,0.00,,,0.00,WeatherDisplay:10.37,2013-02-03 07:41:00,
2013-02-03 02:46:00,21.1,15.0,30.00,West,272,0.0,0.0,77,0.00,,,0.00,WeatherDisplay:10.37,2013-02-03 07:46:00,
2013-02-03 02:51:00,21.0,14.9,30.00,West,272,0.0,0.0,77,0.00,,,0.00,WeatherDisplay:10.37,2013-02-03 07:51:00,
2013-02-03 02:56:00,20.9,14.8,30.00,West,272,0.0,0.0,77,0.00,,,0.00,WeatherDisplay:10.37,2013-02-03 07:56:00,
2013-02-03 03:01:00,20.9,14.8,30.00,West,272,0.0,0.0,77,0.00,,,0.00,WeatherDisplay:10.37,2013-02-03 08:01:00,
2013-02-03 03:06:00,20.9,15.1,29.99,West,272,0.0,0.0,78,0.00,,,0.00,WeatherDisplay:10.37,2013-02-03 08:06:00,
2013-02-03 03:11:00,20.8,15.3,29.99,West,272,0.0,0.0,79,0.00,,,0.00,WeatherDisplay:10.37,2013-02-03 08:11:00,
2013-02-03 03:16:00,20.8,15.0,29.99,West,272,0.0,0.0,78,0.00,,,0.00,WeatherDisplay:10.37,2013-02-03 08:16:00,
2013-02-03 03:21:00,20.7,14.9,29.99,West,272,0.0,0.0,78,0.00,,,0.00,WeatherDisplay:10.37,2013-02-03 08:21:00,
2013-02-03 03:26:00,20.7,15.2,29.99,West,272,0.0,0.0,79,0.00,,,0.00,WeatherDisplay:10.37,2013-02-03 08:26:00,
2013-02-03 03:31:00,20.6,14.8,29.99,West,272,0.0,0.0,78,0.00,,,0.00,WeatherDisplay:10.37,2013-02-03 08:31:00,
2013-02-03 03:36:00,20.6,14.8,29.99,West,272,0.0,0.0,78,0.00,,,0.00,WeatherDisplay:10.37,2013-02-03 08:36:00,
2013-02-03 03:41:00,20.6,14.8,29.98,West,272,0.0,0.0,78,0.00,,,0.00,WeatherDisplay:10.37,2013-02-03 08:41:00,
2013-02-03 03:46:00,20.5,14.7,29.98,West,272,0.0,0.0,78,0.00,,,0.00,WeatherDisplay:10.37,2013-02-03 08:46:00,
2013-02-03 03:51:00,20.4,14.6,29.98,West,272,0.0,0.0,78,0.00,,,0.00,WeatherDisplay:10.37,2013-02-03 08:51:00,
2013-02-03 03:56:00,20.3,14.5,29.98,West,272,0.0,0.0,78,0.00,,,0.00,WeatherDisplay:10.37,2013-02-03 08:56:00,
2013-02-03 04:01:00,20.1,14.3,29.98,West,272,0.0,0.0,78,0.00,,,0.00,WeatherDisplay:10.37,2013-02-03 09:01:00,
2013-02-03 04:06:00,20.0,14.5,29.98,West,272,0.0,0.0,79,0.00,,,0.00,WeatherDisplay:10.37,2013-02-03 09:06:00,
2013-02-03 04:11:00,19.7,14.5,29.98,West,272,0.0,0.0,80,0.00,,,0.00,WeatherDisplay:10.37,2013-02-03 09:11:00,
2013-02-03 04:16:00,19.6,14.1,29.98,West,272,0.0,0.0,79,0.00,,,0.00,WeatherDisplay:10.37,2013-02-03 09:16:00,
2013-02-03 04:21:00,19.5,14.3,29.98,West,272,0.0,0.0,80,0.00,,,0.00,WeatherDisplay:10.37,2013-02-03 09:21:00,
2013-02-03 04:26:00,19.3,14.4,29.98,West,272,0.0,0.0,81,0.00,,,0.00,WeatherDisplay:10.37,2013-02-03 09:26:00,
2013-02-03 04:31:00,19.1,13.9,29.98,West,272,0.0,0.0,80,0.00,,,0.00,WeatherDisplay:10.37,2013-02-03 09:31:00,
2013-02-03 04:36:00,19.0,13.8,29.98,West,272,0.0,0.0,80,0.00,,,0.00,WeatherDisplay:10.37,2013-02-03 09:36:00,
2013-02-03 04:41:00,18.9,14.0,29.98,West,272,0.0,0.0,81,0.00,,,0.00,WeatherDisplay:10.37,2013-02-03 09:41:00,
2013-02-03 04:46:00,18.8,13.9,29.98,West,272,0.0,0.0,81,0.00,,,0.00,WeatherDisplay:10.37,2013-02-03 09:46:00,
2013-02-03 04:51:00,18.7,14.1,29.97,West,272,0.0,0.0,82,0.00,,,0.00,WeatherDisplay:10.37,2013-02-03 09:51:00,
2013-02-03 04:56:00,18.6,14.0,29.97,West,272,0.0,0.0,82,0.00,,,0.00,WeatherDisplay:10.37,2013-02-03 09:56:00,
2013-02-03 05:01:00,18.6,14.0,29.97,West,272,0.0,0.0,82,0.00,,,0.00,WeatherDisplay:10.37,2013-02-03 10:01:00,
2013-02-03 05:06:00,18.5,13.9,29.97,West,272,0.0,0.0,82,0.00,,,0.00,WeatherDisplay:10.37,2013-02-03 10:06:00,
2013-02-03 05:11:00,18.3,14.3,29.97,West,272,0.0,0.0,84,0.00,,,0.00,WeatherDisplay:10.37,2013-02-03 10:11:00,
2013-02-03 05:16:00,18.1,14.1,29.97,West,272,0.0,0.0,84,0.00,,,0.00,WeatherDisplay:10.37,2013-02-03 10:16:00,
2013-02-03 05:21:00,18.0,14.0,29.97,West,272,0.0,0.0,84,0.00,,,0.00,WeatherDisplay:10.37,2013-02-03 10:21:00,
2013-02-03 05:26:00,17.8,14.1,29.97,West,272,0.0,0.0,85,0.00,,,0.00,WeatherDisplay:10.37,2013-02-03 10:26:00,
2013-02-03 05:31:00,17.8,14.1,29.97,West,272,0.0,0.0,85,0.00,,,0.00,WeatherDisplay:10.37,2013-02-03 10:31:00,
2013-02-03 05:36:00,17.8,14.1,29.97,West,272,0.0,0.0,85,0.00,,,0.00,WeatherDisplay:10.37,2013-02-03 10:36:00,
2013-02-03 05:41:00,17.8,13.8,29.97,West,272,0.0,0.0,84,0.00,,,0.00,WeatherDisplay:10.37,2013-02-03 10:41:00,
2013-02-03 05:46:00,17.7,14.0,29.97,West,272,0.0,0.0,85,0.00,,,0.00,WeatherDisplay:10.37,2013-02-03 10:46:00,
2013-02-03 05:51:00,17.6,13.9,29.97,West,272,0.0,0.0,85,0.00,,,0.00,WeatherDisplay:10.37,2013-02-03 10:51:00,
2013-02-03 05:56:00,17.3,13.6,29.97,West,272,0.0,0.0,85,0.00,,,0.00,WeatherDisplay:10.37,2013-02-03 10:56:00,
2013-02-03 06:01:00,17.2,13.2,29.97,West,272,0.0,0.0,84,0.00,,,0.00,WeatherDisplay:10.37,2013-02-03 11:01:00,
2013-02-03 06:06:00,17.0,13.3,29.97,West,272,0.0,0.0,85,0.00,,,0.00,WeatherDisplay:10.37,2013-02-03 11:06:00,
2013-02-03 06:11:00,16.8,13.1,29.97,West,272,0.0,0.0,85,0.00,,,0.00,WeatherDisplay:10.37,2013-02-03 11:11:00,
2013-02-03 06:16:00,16.6,12.9,29.97,NNW,337,0.0,0.0,85,0.00,,,0.00,WeatherDisplay:10.37,2013-02-03 11:16:00,
2013-02-03 06:21:00,16.4,12.7,29.97,NNW,337,0.0,0.0,85,0.00,,,0.00,WeatherDisplay:10.37,2013-02-03 11:21:00,
2013-02-03 06:26:00,16.3,12.6,29.97,NNW,337,0.0,0.0,85,0.00,,,0.00,WeatherDisplay:10.37,2013-02-03 11:26:00,
2013-02-03 06:31:00,16.1,12.4,29.97,NNW,337,0.0,0.0,85,0.00,,,0.00,WeatherDisplay:10.37,2013-02-03 11:31:00,
2013-02-03 06:36:00,15.9,12.5,29.97,NNW,337,0.0,0.0,86,0.00,,,0.00,WeatherDisplay:10.37,2013-02-03 11:36:00,
2013-02-03 06:41:00,15.7,12.3,29.97,NNW,337,0.0,0.0,86,0.00,,,0.00,WeatherDisplay:10.37,2013-02-03 11:41:00,
2013-02-03 06:46:00,15.6,12.2,29.97,NNW,337,0.0,0.0,86,0.00,,,0.00,WeatherDisplay:10.37,2013-02-03 11:46:00,
2013-02-03 06:51:00,15.5,12.3,29.97,NNW,337,0.0,0.0,87,0.00,,,0.00,WeatherDisplay:10.37,2013-02-03 11:51:00,
2013-02-03 06:56:00,15.3,12.1,29.97,NNW,337,0.0,0.0,87,0.00,,,0.00,WeatherDisplay:10.37,2013-02-03 11:56:00,
2013-02-03 07:01:00,15.1,11.9,29.97,NNW,337,0.0,0.0,87,0.00,,,0.00,WeatherDisplay:10.37,2013-02-03 12:01:00,
2013-02-03 07:06:00,15.0,11.8,29.97,NNW,337,0.0,0.0,87,0.00,,,0.00,WeatherDisplay:10.37,2013-02-03 12:06:00,
2013-02-03 07:11:00,14.9,11.7,29.97,NNW,337,0.0,0.0,87,0.00,,,0.00,WeatherDisplay:10.37,2013-02-03 12:11:00,
2013-02-03 07:16:00,14.8,11.6,29.97,NNW,337,0.0,0.0,87,0.00,,,0.00,WeatherDisplay:10.37,2013-02-03 12:16:00,
2013-02-03 07:21:00,14.8,11.6,29.97,NNW,337,0.0,0.0,87,0.00,,,0.00,WeatherDisplay:10.37,2013-02-03 12:21:00,
2013-02-03 07:26:00,14.8,11.6,29.97,NNW,337,0.0,0.0,87,0.00,,,0.00,WeatherDisplay:10.37,2013-02-03 12:26:00,
2013-02-03 07:31:00,14.7,11.5,29.97,NNW,337,0.0,0.0,87,0.00,,,0.00,WeatherDisplay:10.37,2013-02-03 12:31:00,
2013-02-03 07:36:00,14.5,11.3,29.97,NNW,337,0.0,0.0,87,0.00,,,0.00,WeatherDisplay:10.37,2013-02-03 12:36:00,
2013-02-03 07:41:00,14.3,11.1,29.97,NNW,337,0.0,0.0,87,0.00,,,0.00,WeatherDisplay:10.37,2013-02-03 12:41:00,
2013-02-03 07:46:00,14.1,11.2,29.97,NNW,337,0.0,0.0,88,0.00,,,0.00,WeatherDisplay:10.37,2013-02-03 12:46:00,
2013-02-03 07:51:00,14.1,11.2,29.97,NNW,337,0.0,0.0,88,0.00,,,0.00,WeatherDisplay:10.37,2013-02-03 12:51:00,
2013-02-03 07:56:00,14.1,11.5,29.97,NNW,337,0.0,0.0,89,0.00,,,0.00,WeatherDisplay:10.37,2013-02-03 12:56:00,
2013-02-03 08:01:00,14.1,11.5,29.97,NNW,337,0.0,0.0,89,0.00,,,0.00,WeatherDisplay:10.37,2013-02-03 13:01:00,
2013-02-03 08:06:00,14.1,11.5,29.97,NNW,337,0.0,0.0,89,0.00,,,0.00,WeatherDisplay:10.37,2013-02-03 13:06:00,
2013-02-03 08:11:00,14.1,11.5,29.97,NNW,337,0.0,0.0,89,0.00,,,0.00,WeatherDisplay:10.37,2013-02-03 13:11:00,
2013-02-03 08:16:00,14.2,11.6,29.97,NNW,337,0.0,0.0,89,0.00,,,0.00,WeatherDisplay:10.37,2013-02-03 13:16:00,
2013-02-03 08:21:00,14.3,11.7,29.97,NNW,337,0.0,0.0,89,0.00,,,0.00,WeatherDisplay:10.37,2013-02-03 13:21:00,
2013-02-03 08:26:00,14.4,11.8,29.98,NNW,337,0.0,0.0,89,0.00,,,0.00,WeatherDisplay:10.37,2013-02-03 13:26:00,
2013-02-03 08:31:00,14.5,11.9,29.97,NNW,337,0.0,0.0,89,0.00,,,0.00,WeatherDisplay:10.37,2013-02-03 13:31:00,
2013-02-03 08:36:00,14.7,12.3,29.98,NNW,337,0.0,0.0,90,0.00,,,0.00,WeatherDisplay:10.37,2013-02-03 13:36:00,
2013-02-03 08:41:00,14.9,12.2,29.97,NNW,337,0.0,0.0,89,0.00,,,0.00,WeatherDisplay:10.37,2013-02-03 13:41:00,
2013-02-03 08:46:00,15.1,12.4,29.97,NNW,337,0.0,0.0,89,0.00,,,0.00,WeatherDisplay:10.37,2013-02-03 13:46:00,
2013-02-03 08:51:00,15.3,12.6,29.98,NNW,337,0.0,0.0,89,0.00,,,0.00,WeatherDisplay:10.37,2013-02-03 13:51:00,
2013-02-03 08:56:00,15.5,12.8,29.98,NNW,337,0.0,0.0,89,0.00,,,0.00,WeatherDisplay:10.37,2013-02-03 13:56:00,
2013-02-03 09:01:00,15.7,13.0,29.98,NNW,337,0.0,0.0,89,0.00,,,0.00,WeatherDisplay:10.37,2013-02-03 14:01:00,
2013-02-03 09:06:00,16.1,13.4,29.98,NNW,337,0.0,0.0,89,0.00,,,0.00,WeatherDisplay:10.37,2013-02-03 14:06:00,
2013-02-03 09:11:00,16.7,14.0,29.98,NNW,337,0.0,0.0,89,0.00,,,0.00,WeatherDisplay:10.37,2013-02-03 14:11:00,
2013-02-03 09:16:00,17.2,14.0,29.97,NNW,337,0.0,0.0,87,0.00,,,0.00,WeatherDisplay:10.37,2013-02-03 14:16:00,
2013-02-03 09:21:00,17.6,14.4,29.97,NNW,337,0.0,0.0,87,0.00,,,0.00,WeatherDisplay:10.37,2013-02-03 14:21:00,
2013-02-03 09:26:00,18.0,14.5,29.97,WSW,242,0.0,2.3,86,0.00,,,0.00,WeatherDisplay:10.37,2013-02-03 14:26:00,
2013-02-03 09:31:00,18.4,14.6,29.97,WSW,242,0.0,0.0,85,0.00,,,0.00,WeatherDisplay:10.37,2013-02-03 14:31:00,
2013-02-03 09:36:00,18.7,14.7,29.96,WNW,291,1.1,2.3,84,0.00,,,0.00,WeatherDisplay:10.37,2013-02-03 14:36:00,
2013-02-03 09:41:00,19.2,14.9,29.96,WNW,291,0.0,0.0,83,0.00,,,0.00,WeatherDisplay:10.37,2013-02-03 14:41:00,
2013-02-03 09:46:00,19.5,14.9,29.96,North,5,1.2,2.3,82,0.00,,,0.00,WeatherDisplay:10.37,2013-02-03 14:46:00,
2013-02-03 09:51:00,19.8,14.9,29.95,North,5,0.0,0.0,81,0.00,,,0.00,WeatherDisplay:10.37,2013-02-03 14:51:00,
2013-02-03 09:56:00,20.0,15.1,29.95,North,5,0.0,0.0,81,0.00,,,0.00,WeatherDisplay:10.37,2013-02-03 14:56:00,
2013-02-03 10:01:00,20.3,14.8,29.95,North,5,0.5,0.0,79,0.00,,,0.00,WeatherDisplay:10.37,2013-02-03 15:01:00,
2013-02-03 10:06:00,20.5,14.7,29.95,NNW,346,0.0,0.0,78,0.00,,,0.00,WeatherDisplay:10.37,2013-02-03 15:06:00,
2013-02-03 10:11:00,20.8,15.0,29.95,NNW,346,0.0,0.0,78,0.00,,,0.00,WeatherDisplay:10.37,2013-02-03 15:11:00,
2013-02-03 10:16:00,21.1,15.3,29.94,NE,45,1.2,2.3,78,0.00,,,0.00,WeatherDisplay:10.37,2013-02-03 15:16:00,
2013-02-03 10:21:00,21.4,15.0,29.94,WNW,295,1.2,3.5,76,0.00,,,0.00,WeatherDisplay:10.37,2013-02-03 15:21:00,
2013-02-03 10:26:00,21.7,15.0,29.94,North,11,0.5,0.0,75,0.00,,,0.00,WeatherDisplay:10.37,2013-02-03 15:26:00,
2013-02-03 10:31:00,22.0,15.6,29.94,NW,304,1.7,3.0,76,0.00,,,0.00,WeatherDisplay:10.37,2013-02-03 15:31:00,
2013-02-03 10:36:00,22.3,15.0,29.93,NNE,20,1.1,1.1,73,0.00,,,0.00,WeatherDisplay:10.37,2013-02-03 15:36:00,
2013-02-03 10:41:00,22.5,15.1,29.93,NNE,20,0.0,1.1,73,0.00,,,0.00,WeatherDisplay:10.37,2013-02-03 15:41:00,
2013-02-03 10:46:00,22.7,15.0,29.93,ENE,61,0.7,1.1,72,0.00,,,0.00,WeatherDisplay:10.37,2013-02-03 15:46:00,
2013-02-03 10:51:00,22.9,14.9,29.93,NE,42,1.8,3.5,71,0.00,,,0.00,WeatherDisplay:10.37,2013-02-03 15:51:00,
2013-02-03 10:56:00,23.0,15.0,29.93,NE,42,0.0,0.0,71,0.00,,,0.00,WeatherDisplay:10.37,2013-02-03 15:56:00,
2013-02-03 11:01:00,23.2,15.2,29.92,North,9,0.1,1.1,71,0.00,,,0.00,WeatherDisplay:10.37,2013-02-03 16:01:00,
2013-02-03 11:06:00,23.4,15.1,29.92,North,9,0.2,1.1,70,0.00,,,0.00,WeatherDisplay:10.37,2013-02-03 16:06:00,
2013-02-03 11:11:00,23.4,14.4,29.92,NW,304,0.0,3.5,68,0.00,,,0.00,WeatherDisplay:10.37,2013-02-03 16:11:00,
2013-02-03 11:16:00,23.5,14.5,29.91,NE,40,0.0,1.1,68,0.00,,,0.00,WeatherDisplay:10.37,2013-02-03 16:16:00,
2013-02-03 11:21:00,23.5,14.8,29.91,NE,40,0.0,0.0,69,0.00,,,0.00,WeatherDisplay:10.37,2013-02-03 16:21:00,
2013-02-03 11:26:00,23.6,14.6,29.90,North,11,0.7,2.3,68,0.00,,,0.00,WeatherDisplay:10.37,2013-02-03 16:26:00,
2013-02-03 11:31:00,23.9,14.9,29.90,NNW,342,0.1,2.3,68,0.00,,,0.00,WeatherDisplay:10.37,2013-02-03 16:31:00,
2013-02-03 11:36:00,24.2,15.5,29.89,North,5,0.1,1.0,69,0.00,,,0.00,WeatherDisplay:10.37,2013-02-03 16:36:00,
2013-02-03 11:41:00,24.6,14.9,29.89,NW,309,2.0,3.5,66,0.00,,,0.00,WeatherDisplay:10.37,2013-02-03 16:41:00,
2013-02-03 11:46:00,24.9,15.1,29.89,NNW,346,1.0,3.5,66,0.00,,,0.00,WeatherDisplay:10.37,2013-02-03 16:46:00,
2013-02-03 11:51:00,25.3,14.8,29.89,North,355,1.4,3.5,64,0.00,,,0.00,WeatherDisplay:10.37,2013-02-03 16:51:00,
2013-02-03 11:56:00,25.6,15.5,29.88,NW,307,0.2,0.0,65,0.00,,,0.00,WeatherDisplay:10.37,2013-02-03 16:56:00,
2013-02-03 12:01:00,26.0,14.8,29.88,NW,307,0.2,2.3,62,0.00,,,0.00,WeatherDisplay:10.37,2013-02-03 17:01:00,
2013-02-03 12:06:00,26.2,15.3,29.88,North,9,1.8,2.0,63,0.00,,,0.00,WeatherDisplay:10.37,2013-02-03 17:06:00,
2013-02-03 12:11:00,26.3,15.0,29.87,NW,304,1.9,2.3,62,0.00,,,0.00,WeatherDisplay:10.37,2013-02-03 17:11:00,
2013-02-03 12:16:00,26.2,14.9,29.86,NW,326,0.0,0.0,62,0.00,,,0.00,WeatherDisplay:10.37,2013-02-03 17:16:00,
2013-02-03 12:22:00,26.3,14.7,29.86,NW,326,0.0,0.0,61,0.00,,,0.00,WeatherDisplay:10.37,2013-02-03 17:22:00,
2013-02-03 12:27:00,26.6,15.3,29.86,ENE,57,1.0,2.3,62,0.00,,,0.00,WeatherDisplay:10.37,2013-02-03 17:27:00,
2013-02-03 12:32:00,26.6,15.3,29.86,WSW,248,0.9,2.3,62,0.00,,,0.00,WeatherDisplay:10.37,2013-02-03 17:32:00,
2013-02-03 12:37:00,26.7,15.8,29.85,ENE,74,0.0,0.0,63,0.00,,,0.00,WeatherDisplay:10.37,2013-02-03 17:37:00,
2013-02-03 12:42:00,26.9,15.2,29.85,NNE,15,0.6,3.5,61,0.00,,,0.00,WeatherDisplay:10.37,2013-02-03 17:42:00,
2013-02-03 12:47:00,27.1,15.4,29.84,NNW,343,1.9,3.5,61,0.00,,,0.00,WeatherDisplay:10.37,2013-02-03 17:47:00,
2013-02-03 12:52:00,27.1,15.8,29.84,NNE,23,1.4,3.5,62,0.00,,,0.00,WeatherDisplay:10.37,2013-02-03 17:52:00,
2013-02-03 12:57:00,27.0,15.7,29.83,North,5,0.5,2.0,62,0.00,,,0.00,WeatherDisplay:10.37,2013-02-03 17:57:00,
2013-02-03 13:02:00,26.8,14.8,29.83,NW,315,0.9,2.3,60,0.00,,,0.00,WeatherDisplay:10.37,2013-02-03 18:02:00,
2013-02-03 13:07:00,26.5,14.9,29.83,West,264,0.0,1.1,61,0.00,,,0.00,WeatherDisplay:10.37,2013-02-03 18:07:00,
2013-02-03 13:12:00,26.5,14.9,29.83,NNE,17,0.2,1.1,61,0.00,,,0.00,WeatherDisplay:10.37,2013-02-03 18:12:00,
2013-02-03 13:17:00,26.6,14.6,29.82,NNE,17,0.0,0.0,60,0.00,,,0.00,WeatherDisplay:10.37,2013-02-03 18:17:00,
2013-02-03 13:22:00,26.8,15.1,29.82,WNW,294,1.6,3.5,61,0.00,,,0.00,WeatherDisplay:10.37,2013-02-03 18:22:00,
2013-02-03 13:27:00,26.9,15.2,29.81,WNW,296,0.8,2.3,61,0.00,,,0.00,WeatherDisplay:10.37,2013-02-03 18:27:00,
2013-02-03 13:32:00,26.9,14.9,29.81,WNW,298,0.0,2.3,60,0.00,,,0.00,WeatherDisplay:10.37,2013-02-03 18:32:00,
2013-02-03 13:37:00,27.2,15.1,29.81,NW,304,0.0,0.0,60,0.00,,,0.00,WeatherDisplay:10.37,2013-02-03 18:37:00,
2013-02-03 13:42:00,27.4,14.9,29.81,North,5,0.5,2.3,59,0.00,,,0.00,WeatherDisplay:10.37,2013-02-03 18:42:00,
2013-02-03 13:47:00,27.5,15.4,29.81,North,5,0.0,0.0,60,0.00,,,0.00,WeatherDisplay:10.37,2013-02-03 18:47:00,
2013-02-03 13:52:00,27.7,15.6,29.80,NNW,331,0.0,0.0,60,0.00,,,0.00,WeatherDisplay:10.37,2013-02-03 18:52:00,
2013-02-03 13:57:00,27.8,14.9,29.80,ESE,112,0.0,0.0,58,0.00,,,0.00,WeatherDisplay:10.37,2013-02-03 18:57:00,
2013-02-03 14:02:00,27.8,14.9,29.80,ESE,104,1.8,3.5,58,0.00,,,0.00,WeatherDisplay:10.37,2013-02-03 19:02:00,
2013-02-03 14:07:00,27.5,14.6,29.80,West,260,0.5,3.5,58,0.00,,,0.00,WeatherDisplay:10.37,2013-02-03 19:07:00,
2013-02-03 14:12:00,27.5,15.4,29.80,NE,55,0.1,2.3,60,0.00,,,0.00,WeatherDisplay:10.37,2013-02-03 19:12:00,
2013-02-03 14:17:00,27.6,15.1,29.80,ENE,64,0.7,2.0,59,0.00,,,0.00,WeatherDisplay:10.37,2013-02-03 19:17:00,
2013-02-03 14:22:00,27.6,15.1,29.80,ENE,64,0.0,0.0,59,0.00,,,0.00,WeatherDisplay:10.37,2013-02-03 19:22:00,
2013-02-03 14:27:00,27.6,14.7,29.80,NNE,32,1.1,3.5,58,0.00,,,0.00,WeatherDisplay:10.37,2013-02-03 19:27:00,
2013-02-03 14:32:00,27.4,14.9,29.80,NNE,32,0.0,1.1,59,0.00,,,0.00,WeatherDisplay:10.37,2013-02-03 19:32:00,
2013-02-03 14:37:00,27.4,14.5,29.80,NNE,32,0.0,0.0,58,0.00,,,0.00,WeatherDisplay:10.37,2013-02-03 19:37:00,
2013-02-03 14:42:00,27.4,14.9,29.80,ENE,69,0.7,2.3,59,0.00,,,0.00,WeatherDisplay:10.37,2013-02-03 19:42:00,
2013-02-03 14:47:00,27.4,14.9,29.80,ENE,69,0.0,1.1,59,0.00,,,0.00,WeatherDisplay:10.37,2013-02-03 19:47:00,
2013-02-03 14:52:00,27.4,15.3,29.79,ENE,69,0.0,0.0,60,0.00,,,0.00,WeatherDisplay:10.37,2013-02-03 19:52:00,
2013-02-03 14:57:00,27.4,14.9,29.79,ENE,69,0.4,2.3,59,0.00,,,0.00,WeatherDisplay:10.37,2013-02-03 19:57:00,
2013-02-03 15:02:00,27.5,15.4,29.79,ENE,70,0.0,0.0,60,0.00,,,0.00,WeatherDisplay:10.37,2013-02-03 20:02:00,
2013-02-03 15:07:00,27.6,15.5,29.79,ENE,69,0.0,0.0,60,0.00,,,0.00,WeatherDisplay:10.37,2013-02-03 20:07:00,
2013-02-03 15:12:00,27.6,14.7,29.79,ENE,69,0.0,0.0,58,0.00,,,0.00,WeatherDisplay:10.37,2013-02-03 20:12:00,
2013-02-03 15:17:00,27.7,16.0,29.79,ENE,69,0.0,1.1,61,0.00,,,0.00,WeatherDisplay:10.37,2013-02-03 20:17:00,
2013-02-03 15:22:00,27.7,15.2,29.79,ENE,69,0.1,0.0,59,0.00,,,0.00,WeatherDisplay:10.37,2013-02-03 20:22:00,
2013-02-03 15:27:00,27.8,16.1,29.79,ENE,69,0.2,1.0,61,0.00,,,0.00,WeatherDisplay:10.37,2013-02-03 20:27:00,
2013-02-03 15:32:00,27.8,16.1,29.78,ENE,69,0.0,1.1,61,0.00,,,0.00,WeatherDisplay:10.37,2013-02-03 20:32:00,
2013-02-03 15:37:00,27.7,16.0,29.78,NNE,23,0.7,2.3,61,0.00,,,0.00,WeatherDisplay:10.37,2013-02-03 20:37:00,
2013-02-03 15:42:00,27.7,15.6,29.78,NNE,23,0.0,0.0,60,0.00,,,0.00,WeatherDisplay:10.37,2013-02-03 20:42:00,
2013-02-03 15:47:00,27.6,15.1,29.78,NNE,23,0.0,1.1,59,0.00,,,0.00,WeatherDisplay:10.37,2013-02-03 20:47:00,
2013-02-03 15:52:00,27.5,15.4,29.78,NNE,23,0.4,1.1,60,0.00,,,0.00,WeatherDisplay:10.37,2013-02-03 20:52:00,
2013-02-03 15:57:00,27.4,15.7,29.78,NNE,23,0.1,0.0,61,0.00,,,0.00,WeatherDisplay:10.37,2013-02-03 20:57:00,
2013-02-03 16:02:00,27.3,15.2,29.78,NNE,24,0.4,1.1,60,0.00,,,0.00,WeatherDisplay:10.37,2013-02-03 21:02:00,
2013-02-03 16:07:00,27.2,15.5,29.78,NNE,24,0.4,1.1,61,0.00,,,0.00,WeatherDisplay:10.37,2013-02-03 21:07:00,
2013-02-03 16:12:00,27.2,15.5,29.78,NNE,24,0.7,1.1,61,0.00,,,0.00,WeatherDisplay:10.37,2013-02-03 21:12:00,
2013-02-03 16:17:00,27.1,15.8,29.77,NNE,24,0.0,0.0,62,0.00,,,0.00,WeatherDisplay:10.37,2013-02-03 21:17:00,
2013-02-03 16:22:00,27.0,15.7,29.77,NNE,24,0.0,0.0,62,0.00,,,0.00,WeatherDisplay:10.37,2013-02-03 21:22:00,
2013-02-03 16:27:00,27.0,15.7,29.77,NNE,24,0.0,0.0,62,0.00,,,0.00,WeatherDisplay:10.37,2013-02-03 21:27:00,
2013-02-03 16:32:00,26.9,16.0,29.77,NNE,24,0.0,0.0,63,0.00,,,0.00,WeatherDisplay:10.37,2013-02-03 21:32:00,
2013-02-03 16:37:00,26.9,16.0,29.77,NNE,24,0.0,0.0,63,0.00,,,0.00,WeatherDisplay:10.37,2013-02-03 21:37:00,
2013-02-03 16:42:00,26.7,15.8,29.77,NNE,24,0.0,0.0,63,0.00,,,0.00,WeatherDisplay:10.37,2013-02-03 21:42:00,
2013-02-03 16:47:00,26.7,16.1,29.77,NNE,24,0.0,0.0,64,0.00,,,0.00,WeatherDisplay:10.37,2013-02-03 21:47:00,
2013-02-03 16:52:00,26.7,15.8,29.77,NNE,24,0.0,0.0,63,0.00,,,0.00,WeatherDisplay:10.37,2013-02-03 21:52:00,
2013-02-03 16:57:00,26.5,15.6,29.77,NNE,24,0.0,0.0,63,0.00,,,0.00,WeatherDisplay:10.37,2013-02-03 21:57:00,
2013-02-03 17:02:00,26.5,15.6,29.77,NNE,24,0.0,0.0,63,0.00,,,0.00,WeatherDisplay:10.37,2013-02-03 22:02:00,
2013-02-03 17:07:00,26.5,16.0,29.76,NNE,24,0.0,0.0,64,0.00,,,0.00,WeatherDisplay:10.37,2013-02-03 22:07:00,
2013-02-03 17:12:00,26.3,15.4,29.76,NNE,24,0.0,0.0,63,0.00,,,0.00,WeatherDisplay:10.37,2013-02-03 22:12:00,
2013-02-03 17:17:00,26.3,15.4,29.76,NNE,24,0.0,0.0,63,0.00,,,0.00,WeatherDisplay:10.37,2013-02-03 22:17:00,
2013-02-03 17:22:00,26.2,15.7,29.76,NNE,24,0.0,0.0,64,0.00,,,0.00,WeatherDisplay:10.37,2013-02-03 22:22:00,
2013-02-03 17:27:00,26.2,16.4,29.76,NNE,24,0.0,0.0,66,0.00,,,0.00,WeatherDisplay:10.37,2013-02-03 22:27:00,
2013-02-03 17:32:00,26.1,15.9,29.76,NNE,24,0.0,0.0,65,0.00,,,0.00,WeatherDisplay:10.37,2013-02-03 22:32:00,
2013-02-03 17:37:00,26.0,16.2,29.76,NNE,24,0.0,0.0,66,0.00,,,0.00,WeatherDisplay:10.37,2013-02-03 22:37:00,
2013-02-03 17:42:00,26.0,15.8,29.76,NNE,24,0.0,0.0,65,0.00,,,0.00,WeatherDisplay:10.37,2013-02-03 22:42:00,
2013-02-03 17:47:00,25.9,16.1,29.76,NNE,24,0.0,0.0,66,0.00,,,0.00,WeatherDisplay:10.37,2013-02-03 22:47:00,
2013-02-03 17:52:00,25.9,16.1,29.76,NNE,24,0.0,0.0,66,0.00,,,0.00,WeatherDisplay:10.37,2013-02-03 22:52:00,
2013-02-03 17:57:00,25.8,16.3,29.76,NNE,24,0.0,0.0,67,0.00,,,0.00,WeatherDisplay:10.37,2013-02-03 22:57:00,
2013-02-03 18:02:00,25.7,16.3,29.75,NNE,24,0.0,0.0,67,0.00,,,0.00,WeatherDisplay:10.37,2013-02-03 23:02:00,
2013-02-03 18:07:00,25.7,15.9,29.76,NNE,24,0.0,0.0,66,0.00,,,0.00,WeatherDisplay:10.37,2013-02-03 23:07:00,
2013-02-03 18:12:00,25.6,15.8,29.75,NNE,24,0.0,0.0,66,0.00,,,0.00,WeatherDisplay:10.37,2013-02-03 23:12:00,
2013-02-03 18:17:00,25.6,15.8,29.75,NNE,24,0.0,0.0,66,0.00,,,0.00,WeatherDisplay:10.37,2013-02-03 23:17:00,
2013-02-03 18:22:00,25.6,16.2,29.75,NNE,24,0.0,0.0,67,0.00,,,0.00,WeatherDisplay:10.37,2013-02-03 23:22:00,
2013-02-03 18:27:00,25.4,15.6,29.75,NNE,24,0.0,0.0,66,0.00,,,0.00,WeatherDisplay:10.37,2013-02-03 23:27:00,
2013-02-03 18:32:00,25.4,15.6,29.75,NNE,24,0.0,0.0,66,0.00,,,0.00,WeatherDisplay:10.37,2013-02-03 23:32:00,
2013-02-03 18:37:00,25.3,15.9,29.75,NNE,24,0.0,0.0,67,0.00,,,0.00,WeatherDisplay:10.37,2013-02-03 23:37:00,
2013-02-03 18:42:00,25.1,16.0,29.75,NNE,24,0.0,0.0,68,0.00,,,0.00,WeatherDisplay:10.37,2013-02-03 23:42:00,
2013-02-03 18:47:00,25.0,16.6,29.76,NNE,24,0.0,0.0,70,0.00,,,0.00,WeatherDisplay:10.37,2013-02-03 23:47:00,
2013-02-03 18:52:00,24.8,16.1,29.75,NNE,24,0.0,0.0,69,0.00,,,0.00,WeatherDisplay:10.37,2013-02-03 23:52:00,
2013-02-03 18:57:00,24.6,15.9,29.76,NNE,24,0.0,0.0,69,0.00,,,0.00,WeatherDisplay:10.37,2013-02-03 23:57:00,
2013-02-03 19:02:00,24.5,16.4,29.76,NNE,24,0.0,0.0,71,0.00,,,0.00,WeatherDisplay:10.37,2013-02-04 00:02:00,
2013-02-03 19:07:00,24.3,16.2,29.76,NNE,24,0.0,0.0,71,0.00,,,0.00,WeatherDisplay:10.37,2013-02-04 00:07:00,
2013-02-03 19:12:00,24.1,16.4,29.76,NNE,24,0.0,0.0,72,0.00,,,0.00,WeatherDisplay:10.37,2013-02-04 00:12:00,
2013-02-03 19:17:00,24.0,16.3,29.76,NNE,24,0.0,0.0,72,0.00,,,0.00,WeatherDisplay:10.37,2013-02-04 00:17:00,
2013-02-03 19:22:00,23.9,16.2,29.76,NNE,24,0.0,0.0,72,0.00,,,0.00,WeatherDisplay:10.37,2013-02-04 00:22:00,
2013-02-03 19:27:00,23.8,16.4,29.76,NNE,24,0.0,0.0,73,0.00,,,0.00,WeatherDisplay:10.37,2013-02-04 00:27:00,
2013-02-03 19:32:00,23.7,16.0,29.76,NNE,24,0.0,0.0,72,0.00,,,0.00,WeatherDisplay:10.37,2013-02-04 00:32:00,
2013-02-03 19:37:00,23.6,16.2,29.76,NNE,24,0.0,0.0,73,0.00,,,0.00,WeatherDisplay:10.37,2013-02-04 00:37:00,
2013-02-03 19:42:00,23.5,16.1,29.76,NNE,24,0.0,0.0,73,0.00,,,0.00,WeatherDisplay:10.37,2013-02-04 00:42:00,
2013-02-03 19:47:00,23.5,16.4,29.76,NNE,24,0.0,0.0,74,0.00,,,0.00,WeatherDisplay:10.37,2013-02-04 00:47:00,
2013-02-03 19:52:00,23.5,16.4,29.76,NNE,24,0.0,0.0,74,0.00,,,0.00,WeatherDisplay:10.37,2013-02-04 00:52:00,
2013-02-03 19:57:00,23.4,16.0,29.76,NNE,24,0.0,0.0,73,0.00,,,0.00,WeatherDisplay:10.37,2013-02-04 00:57:00,
2013-02-03 20:02:00,23.4,16.3,29.75,NNE,24,0.0,0.0,74,0.00,,,0.00,WeatherDisplay:10.37,2013-02-04 01:02:00,
2013-02-03 20:07:00,23.3,16.5,29.75,NNE,24,0.0,0.0,75,0.00,,,0.00,WeatherDisplay:10.37,2013-02-04 01:07:00,
2013-02-03 20:12:00,23.3,16.5,29.75,NNE,24,0.0,0.0,75,0.00,,,0.00,WeatherDisplay:10.37,2013-02-04 01:12:00,
2013-02-03 20:17:00,23.2,16.4,29.75,NNE,24,0.0,0.0,75,0.00,,,0.00,WeatherDisplay:10.37,2013-02-04 01:17:00,
2013-02-03 20:22:00,23.1,16.4,29.75,NNE,24,0.0,0.0,75,0.00,,,0.00,WeatherDisplay:10.37,2013-02-04 01:22:00,
2013-02-03 20:27:00,23.0,16.6,29.75,NNE,24,0.0,0.0,76,0.00,,,0.00,WeatherDisplay:10.37,2013-02-04 01:27:00,
2013-02-03 20:32:00,23.0,16.6,29.75,NNE,24,0.0,0.0,76,0.00,,,0.00,WeatherDisplay:10.37,2013-02-04 01:32:00,
2013-02-03 20:37:00,22.9,16.8,29.75,NNE,24,0.0,0.0,77,0.00,,,0.00,WeatherDisplay:10.37,2013-02-04 01:37:00,
2013-02-03 20:42:00,22.8,16.7,29.75,NNE,24,0.0,0.0,77,0.00,,,0.00,WeatherDisplay:10.37,2013-02-04 01:42:00,
2013-02-03 20:47:00,22.8,16.7,29.75,NNE,24,0.0,0.0,77,0.00,,,0.00,WeatherDisplay:10.37,2013-02-04 01:47:00,
2013-02-03 20:52:00,22.7,16.6,29.75,NNE,24,0.0,0.0,77,0.00,,,0.00,WeatherDisplay:10.37,2013-02-04 01:52:00,
2013-02-03 20:57:00,22.7,16.3,29.75,NNE,24,0.0,0.0,76,0.00,,,0.00,WeatherDisplay:10.37,2013-02-04 01:57:00,
2013-02-03 21:02:00,22.7,16.3,29.75,NNE,24,0.0,0.0,76,0.00,,,0.00,WeatherDisplay:10.37,2013-02-04 02:02:00,
2013-02-03 21:07:00,22.7,16.3,29.75,NNE,24,0.0,0.0,76,0.00,,,0.00,WeatherDisplay:10.37,2013-02-04 02:07:00,
2013-02-03 21:12:00,22.7,16.6,29.75,NNE,24,0.0,0.0,77,0.00,,,0.00,WeatherDisplay:10.37,2013-02-04 02:12:00,
2013-02-03 21:17:00,22.6,16.5,29.75,NNE,24,0.0,0.0,77,0.00,,,0.00,WeatherDisplay:10.37,2013-02-04 02:17:00,
2013-02-03 21:22:00,22.7,16.3,29.75,NNE,24,0.0,0.0,76,0.00,,,0.00,WeatherDisplay:10.37,2013-02-04 02:22:00,
2013-02-03 21:27:00,22.8,16.7,29.74,NNE,24,0.0,0.0,77,0.00,,,0.00,WeatherDisplay:10.37,2013-02-04 02:27:00,
2013-02-03 21:32:00,22.7,16.9,29.74,NNE,24,0.0,0.0,78,0.00,,,0.00,WeatherDisplay:10.37,2013-02-04 02:32:00,
2013-02-03 21:37:00,22.8,17.0,29.74,NNE,24,0.0,0.0,78,0.00,,,0.00,WeatherDisplay:10.37,2013-02-04 02:37:00,
2013-02-03 21:42:00,22.7,17.2,29.74,NNE,24,0.0,0.0,79,0.00,,,0.00,WeatherDisplay:10.37,2013-02-04 02:42:00,
2013-02-03 21:47:00,22.7,17.2,29.74,NNE,24,0.0,0.0,79,0.00,,,0.00,WeatherDisplay:10.37,2013-02-04 02:47:00,
2013-02-03 21:52:00,22.6,16.8,29.74,NNE,24,0.0,0.0,78,0.00,,,0.00,WeatherDisplay:10.37,2013-02-04 02:52:00,
2013-02-03 21:57:00,22.6,16.5,29.74,NNE,24,0.0,0.0,77,0.00,,,0.00,WeatherDisplay:10.37,2013-02-04 02:57:00,
2013-02-03 22:02:00,22.6,16.8,29.74,NNE,24,0.0,0.0,78,0.00,,,0.00,WeatherDisplay:10.37,2013-02-04 03:02:00,
2013-02-03 22:07:00,22.6,16.8,29.73,NNE,24,0.0,0.0,78,0.00,,,0.00,WeatherDisplay:10.37,2013-02-04 03:07:00,
2013-02-03 22:12:00,22.6,16.5,29.73,NNE,24,0.0,0.0,77,0.00,,,0.00,WeatherDisplay:10.37,2013-02-04 03:12:00,
2013-02-03 22:17:00,22.6,16.8,29.73,NNE,24,0.0,0.0,78,0.00,,,0.00,WeatherDisplay:10.37,2013-02-04 03:17:00,
2013-02-03 22:22:00,22.6,16.8,29.73,NNE,24,0.0,0.0,78,0.00,,,0.00,WeatherDisplay:10.37,2013-02-04 03:22:00,
2013-02-03 22:28:00,22.5,16.7,29.73,NNE,24,0.0,0.0,78,0.00,,,0.00,WeatherDisplay:10.37,2013-02-04 03:28:00,
2013-02-03 22:32:00,22.5,17.0,29.73,NNE,24,0.0,0.0,79,0.00,,,0.00,WeatherDisplay:10.37,2013-02-04 03:32:00,
2013-02-03 22:38:00,22.4,16.6,29.72,NNE,24,0.0,0.0,78,0.00,,,0.00,WeatherDisplay:10.37,2013-02-04 03:38:00,
2013-02-03 22:43:00,22.4,16.9,29.72,NNE,24,0.0,0.0,79,0.00,,,0.00,WeatherDisplay:10.37,2013-02-04 03:43:00,
2013-02-03 22:48:00,22.3,17.1,29.72,NNE,24,0.0,0.0,80,0.00,,,0.00,WeatherDisplay:10.37,2013-02-04 03:48:00,
2013-02-03 22:53:00,22.3,17.1,29.72,NNE,24,0.0,0.0,80,0.00,,,0.00,WeatherDisplay:10.37,2013-02-04 03:53:00,
2013-02-03 22:58:00,22.2,16.7,29.72,NNE,24,0.0,0.0,79,0.00,,,0.00,WeatherDisplay:10.37,2013-02-04 03:58:00,
2013-02-03 23:03:00,22.2,16.7,29.71,NNE,24,0.0,0.0,79,0.00,,,0.00,WeatherDisplay:10.37,2013-02-04 04:03:00,
2013-02-03 23:08:00,22.1,16.9,29.71,NNE,24,0.0,0.0,80,0.00,,,0.00,WeatherDisplay:10.37,2013-02-04 04:08:00,
2013-02-03 23:13:00,22.0,16.8,29.71,NNE,24,0.0,0.0,80,0.00,,,0.00,WeatherDisplay:10.37,2013-02-04 04:13:00,
2013-02-03 23:18:00,22.0,16.8,29.71,NNE,24,0.0,0.0,80,0.00,,,0.00,WeatherDisplay:10.37,2013-02-04 04:18:00,
2013-02-03 23:23:00,21.8,16.9,29.71,NNE,24,0.0,0.0,81,0.00,,,0.00,WeatherDisplay:10.37,2013-02-04 04:23:00,
2013-02-03 23:28:00,21.7,16.5,29.71,NNE,24,0.0,0.0,80,0.00,,,0.00,WeatherDisplay:10.37,2013-02-04 04:28:00,
2013-02-03 23:33:00,21.7,16.8,29.71,NNE,24,0.0,0.0,81,0.00,,,0.00,WeatherDisplay:10.37,2013-02-04 04:33:00,
2013-02-03 23:38:00,21.6,16.7,29.71,NNE,24,0.0,0.0,81,0.00,,,0.00,WeatherDisplay:10.37,2013-02-04 04:38:00,
2013-02-03 23:43:00,21.5,16.6,29.71,NNE,24,0.0,0.0,81,0.00,,,0.00,WeatherDisplay:10.37,2013-02-04 04:43:00,
2013-02-03 23:48:00,21.5,16.9,29.71,NNE,24,0.0,0.0,82,0.00,,,0.00,WeatherDisplay:10.37,2013-02-04 04:48:00,
2013-02-03 23:53:00,21.5,16.9,29.71,NNE,24,0.0,0.0,82,0.00,,,0.00,WeatherDisplay:10.37,2013-02-04 04:53:00,
2013-02-03 23:58:00,21.4,17.0,29.71,NNE,24,0.0,0.0,83,0.00,,,0.00,WeatherDisplay:10.37,2013-02-04 04:58:00,